sat.trackr.live / text

‹ back to catalog

STARLINK-1513

NORAD 45786 · 2020-038BJ

PAYLOAD ACTIVE UNKNOWN

§ Identity

Operator
Country
US
Launch date
2020-06-13
Launch site
AFETR
Launch vehicle
Mass (kg)
RCS (m²)

Purposes: comms

External: N2YO · Heavens-Above · Gunter

§ Orbital elements

Epoch: 2026-05-25T03:13:58.052352Z

Period
94.01 min
Inclination
53.1584°
Eccentricity
0.0001334
Mean motion
15.31695187 rev/d
Perigee alt
469.8 km
Apogee alt
471.7 km
Semi-major
6,848.9 km
B*
5.1195e-5
RAAN
195.6433°
Arg perigee
86.2211°
Mean anomaly
273.8943°
Rev number
32,855

§ Raw data

STARLINK-15131 45786U 20038BJ  26145.13469968  .00001224  00000+0  51195-4 0  99902 45786  53.1584 195.6433 0001334  86.2211 273.8943 15.31695187328555

JSON: /api/v1/satellites/45786 · /tle

For live sub-satellite position, see the globe view (requires WebGL).

§ Visibility from observer

Set your observer location to see the next 7 days of passes ≥ 10°. The values pass through the URL so the page stays shareable.

No JS? Fill the form by hand. The geolocation button needs JavaScript.